Meteo Giornale » Osservazioni meteo Svezia » Malmo-Sturup

ore: 14:20 - Osservazioni Meteo Malmo-Sturup
Lat. 55° 33' N Lon. 13° 22' E Alt. 106 metri s.l.m.

sereno

21 °C

Sereno

Temp. 24 Ore

12 °C

21 °C

Sud

16.7 Km/h

Dew point 15 °C

Umidità 68 %

Visibilità  10 Km

Il sole sorge alle ore 06:10

Il sole tramonta alle ore 20:03

Data e Ora Cielo e Fenomeni T °C DP °C Um. % Pres. hPa Vis. km Vento km/h
Oggi h: 14:20 sereno Sereno 21 15 68 1008 10 S 16.7
Oggi h: 13:50 sereno Sereno 20 15 72 1008 10 S 18.5
Oggi h: 13:20 nuvoloso Nuvoloso 18 18 100 1008 10 S 16.7
Oggi h: 12:50 nuvoloso Nuvoloso 19 17 88 1008 10 S 20.3
Oggi h: 12:20 molto_nuvoloso Molto Nuvoloso 18 18 100 1008 10 S/SO 20.3
Oggi h: 11:50 coperto Coperto 17 17 100 1008 10 S 22.2
Oggi h: 11:20 molto_nuvoloso Molto Nuvoloso 18 18 100 1008 10 S 22.2
Oggi h: 10:50 molto_nuvoloso Molto Nuvoloso 18 18 100 1008 10 S 16.7
Oggi h: 10:20 nuvoloso Nuvoloso 18 18 100 1009 8 S/SE 14.8
Oggi h: 09:50 nuvoloso Nuvoloso 16 16 100 1009 7 S/SE 9.3
Oggi h: 09:20 molto_nuvoloso Molto Nuvoloso 16 16 100 1009 7 S/SE 11.1
Oggi h: 08:50 foschia Foschia 16 16 100 1009 4 S/SE 11.1
Oggi h: 08:20 foschia Foschia 15 15 100 1009 5 N 5.5
Oggi h: 07:50 molto_nuvoloso Molto Nuvoloso 14 14 100 1009 7 N 5.5
Oggi h: 07:20 foschia Foschia 13 13 100 1009 4 N 3.7
Oggi h: 06:50 nebbia Nebbia 12 12 100 1009 0.35 S 7.4
Oggi h: 06:20 nebbia Banco di nebbia 12 12 100 1009 0.2 N 5.5
Oggi h: 05:50 nebbia Nebbia 13 13 100 1009 0.5 N 1.8
Oggi h: 05:20 sereno Sereno 14 14 100 1009 10 SO 7.4
Oggi h: 04:50 sereno Sereno 14 14 100 1009 10 SO 9.3
Oggi h: 04:20 sereno Sereno 15 15 100 1009 10 O/SO 11.1
Oggi h: 03:50 sereno Sereno 14 14 100 1009 10 O/SO 11.1
Oggi h: 03:20 sereno Sereno 14 14 100 1009 10 O/SO 11.1
Oggi h: 02:50 sereno Sereno 15 15 100 1009 10 O/SO 11.1
Oggi h: 02:20 poco_nuvoloso Poco Nuvoloso 15 15 100 1009 10 O/SO 11.1
Oggi h: 01:50 poco_nuvoloso Poco Nuvoloso 15 15 100 1009 10 O/SO 11.1
Oggi h: 01:20 poco_nuvoloso Poco Nuvoloso 15 15 100 1009 10 O/SO 11.1
Oggi h: 00:50 nuvoloso Nuvoloso 15 15 100 1009 10 O/SO 13
Oggi h: 00:20 molto_nuvoloso Molto Nuvoloso 16 16 100 1009 10 O 11.1
Ieri h: 23:50 molto_nuvoloso Molto Nuvoloso 16 16 100 1009 10 O 13
Ieri h: 23:20 nuvoloso Nuvoloso 16 16 100 1009 10 O/SO 14.8
Ieri h: 22:50 poco_nuvoloso Poco Nuvoloso 16 16 100 1009 10 O 14.8
Ieri h: 22:20 nuvoloso Nuvoloso 16 16 100 1009 10 O 13
Ieri h: 21:50 nuvoloso Nuvoloso 17 17 100 1008 10 O 14.8
Ieri h: 21:20 nuvoloso Nuvoloso 17 17 100 1008 10 O 18.5
Ieri h: 20:50 molto_nuvoloso Molto Nuvoloso 17 17 100 1007 10 O 20.3
Ieri h: 20:20 molto_nuvoloso Molto Nuvoloso 18 18 100 1006 10 O 24
Ieri h: 19:50 nuvoloso_piovaschi Pioggia 18 18 100 1006 10 O 24
Ieri h: 19:20 coperto_pioggia Pioviggine 18 18 100 1005 10 O/SO 24
Ieri h: 18:50 molto_nuvoloso Molto Nuvoloso 19 19 100 1005 10 SO 33.3
Ieri h: 18:20 nuvoloso_piovaschi Pioggia 19 19 100 1004 10 SO 35.2
Ieri h: 17:50 molto_nuvoloso Molto Nuvoloso 19 19 100 1004 10 SO 29.6
Ieri h: 17:20 molto_nuvoloso Molto Nuvoloso 19 18 93 1004 10 S/SO 33.3
Ieri h: 16:50 molto_nuvoloso Molto Nuvoloso 19 19 100 1004 10 SO 29.6
Ieri h: 16:20 molto_nuvoloso Molto Nuvoloso 19 19 100 1004 10 S/SO 31.5
Ieri h: 15:50 molto_nuvoloso Molto Nuvoloso 18 18 100 1004 10 SO 33.3
Ieri h: 15:20 coperto_pioggia Pioggia 18 18 100 1004 10 S/SO 33.3
Ieri h: 14:50 nuvoloso Nuvoloso 18 18 100 1004 10 S/SO 35.2